[[{"header":{"parameterUnit":"m.s-1","parameterCategory":1,"la1":30.2992,"la2":30.254,"lo1":-89.0895,"lo2":-89.0443,"dy":0.0025,"dx":0.0025,"nx":19,"ny":19,"refTime":"2026-05-24T03:00:00:Z","depth":0,"parameterNumber":2,"parameterNumberName":"U-component_of_WINDS"},"data":[0,0,0,-2.0704,-2.0705,-2.077,-2.077,-2.0837,-2.0837,0,0,0,0,0,0,0,0,0,0,0,-2.0677,-2.0677,-2.0704,-2.0705,-2.0769,-2.077,-2.0837,-2.0837,0,0,0,0,0,0,0,0,0,0,0,-2.0677,-2.0677,-2.0677,-2.0706,-2.0769,-2.077,-2.0836,-2.0793,0,0,0,0,0,0,0,0,0,0,-2.0733,-2.07,-2.0677,-2.0677,-2.0706,-2.0769,-2.077,-2.0791,-2.0796,-2.0801,0,-2.0805,0,-2.0822,-2.0841,-2.0841,0,0,0,-2.0711,-2.0696,-2.0722,-2.0677,-2.0706,-2.0769,-2.0742,-2.0794,-2.0799,-2.0807,-2.0806,-2.0809,-2.0823,-2.0841,-2.0841,-2.0858,-2.0858,0,0,-2.0708,-2.0683,-2.0718,-2.0724,-2.0715,-2.074,-2.0744,-2.0797,-2.0794,-2.0807,-2.0811,-2.0825,-2.0841,-2.0842,-2.0858,-2.0858,0,0,0,-2.0694,-2.0681,-2.0705,-2.0721,-2.0734,-2.0742,-2.0746,-2.0792,-2.0802,-2.0812,-2.0825,-2.0842,-2.0842,-2.0859,-2.0858,-2.0825,0,0,0,-2.0692,-2.0673,-2.0703,-2.0689,-2.0733,-2.0764,-2.0739,-2.0798,-2.0805,-2.0825,-2.0842,-2.0843,-2.0859,-2.0858,-2.0827,-2.0812,0,0,0,-2.0675,-2.0671,-2.0677,-2.0687,-2.0714,-2.0764,-2.0777,-2.08,-2.0813,-2.0841,-2.0843,-2.0859,-2.0859,-2.0828,-2.0814,-2.0809,0,0,0,-2.065,-2.0646,-2.0676,-2.0677,-2.0714,-2.0744,-2.0777,-2.08,-2.082,-2.0842,-2.0859,-2.0858,-2.0828,-2.0816,-2.081,-2.0799,-2.0792,0,0,-2.0631,-2.0642,-2.0645,-2.0674,-2.0693,-2.0736,-2.0749,-2.079,-2.0814,-2.0842,-2.0843,-2.0826,-2.0815,-2.0809,-2.0768,-2.0763,0,0,0,-2.063,-2.0631,-2.0642,-2.0661,-2.0694,-2.0721,-2.0763,-2.0779,-2.0804,-2.0824,-2.0825,-2.0819,-2.0816,-2.0812,-2.0807,-2.0806,-2.0856,-2.0856,-2.0856,-2.0565,-2.0599,-2.0605,-2.0646,-2.0665,-2.071,-2.0728,-2.0757,-2.0783,-2.0783,-2.079,-2.0762,-2.0756,-2.0753,-2.0751,-2.0789,-2.0789,-2.0789,-2.0789,-2.0537,-2.0543,-2.0583,-2.0603,-2.0638,-2.0655,-2.0699,-2.0718,-2.0738,-2.0759,-2.0758,-2.0775,-2.0746,-2.0746,-2.0787,-2.0787,-2.0788,-2.0788,-2.0788,-2.0495,-2.0504,-2.0526,-2.0559,-2.0581,-2.0625,-2.0643,-2.0675,-2.0705,-2.0705,-2.0716,-2.0717,-2.072,-2.0709,-2.0709,-2.0709,-2.0709,-2.0709,-2.0709,-2.0442,-2.0468,-2.0479,-2.0517,-2.0535,-2.0563,-2.0611,-2.0629,-2.0657,-2.0679,-2.0679,-2.0705,-2.0738,-2.0744,-2.0707,-2.0708,-2.0708,-2.0708,-2.0708,-2.0395,-2.0412,-2.043,-2.0449,-2.0497,-2.0516,-2.056,-2.0595,-2.0615,-2.0623,-2.0652,-2.0671,-2.0684,-2.0688,-2.0693,-2.0645,-2.0645,-2.0645,-2.0645,-2.0357,-2.037,-2.0397,-2.0424,-2.0455,-2.0497,-2.0517,-2.0556,-2.0598,-2.0612,-2.0625,-2.0636,-2.0638,-2.065,-2.0654,-2.0659,-2.0604,-2.0604,-2.0604,-2.033,-2.0347,-2.0357,-2.0401,-2.0442,-2.0476,-2.0496,-2.0525,-2.0577,-2.0603,-2.0624,-2.0626,-2.0644,-2.0648,-2.067,-2.0676,-2.0686,0,0]},{"header":{"parameterUnit":"m.s-1","parameterCategory":1,"la1":30.2992,"la2":30.254,"lo1":-89.0895,"lo2":-89.0443,"dy":0.0025,"dx":0.0025,"nx":19,"ny":19,"refTime":"2026-05-24T03:00:00:Z","depth":0,"parameterNumber":3,"parameterNumberName":"V-component_of_WINDS"},"data":[0,0,0,3.5472,3.5468,3.5196,3.5194,3.4908,3.4906,0,0,0,0,0,0,0,0,0,0,0,3.5597,3.5596,3.5473,3.5467,3.5196,3.5194,3.4909,3.4906,0,0,0,0,0,0,0,0,0,0,0,3.5597,3.5596,3.5596,3.5466,3.5196,3.5194,3.4909,3.509,0,0,0,0,0,0,0,0,0,0,3.5343,3.5502,3.5596,3.5596,3.5465,3.5197,3.5194,3.5098,3.5079,3.506,0,3.506,0,3.498,3.4892,3.4891,0,0,0,3.5432,3.5519,3.5407,3.5596,3.5463,3.5197,3.5309,3.5087,3.5066,3.5035,3.5055,3.5043,3.4975,3.489,3.4889,3.4908,3.4909,0,0,3.5447,3.557,3.5422,3.5395,3.5449,3.5318,3.5301,3.5073,3.5101,3.5054,3.5035,3.497,3.4889,3.4887,3.4906,3.4908,0,0,0,3.5514,3.5582,3.5473,3.5409,3.5356,3.5311,3.5291,3.511,3.5065,3.5031,3.4967,3.4888,3.4885,3.4904,3.4907,3.5113,0,0,0,3.5521,3.562,3.5482,3.5554,3.5362,3.5231,3.5336,3.5081,3.5051,3.4969,3.4888,3.4883,3.4902,3.4905,3.5103,3.5188,0,0,0,3.5599,3.5629,3.5605,3.5561,3.545,3.5232,3.5172,3.5072,3.5014,3.4891,3.4882,3.49,3.4905,3.5094,3.5173,3.5229,0,0,0,3.5716,3.579,3.5611,3.5667,3.5453,3.5364,3.5173,3.5098,3.5018,3.4887,3.4902,3.4906,3.5091,3.5164,3.5221,3.5298,3.5343,0,0,3.5877,3.5814,3.5837,3.5669,3.5645,3.5396,3.5397,3.5203,3.5076,3.4969,3.4968,3.5106,3.5172,3.5227,3.555,3.5587,0,0,0,3.5929,3.5948,3.5914,3.5847,3.5705,3.5588,3.5383,3.531,3.5214,3.5049,3.5137,3.5173,3.52,3.5231,3.5262,3.5276,3.4927,3.4926,3.4926,3.6332,3.617,3.6197,3.6003,3.5938,3.5726,3.5657,3.5522,3.5373,3.5397,3.5364,3.5581,3.5622,3.5644,3.5662,3.5392,3.5393,3.5394,3.5394,3.6552,3.6552,3.6356,3.6313,3.6139,3.6097,3.5894,3.5791,3.5723,3.5592,3.5607,3.5478,3.569,3.5696,3.5408,3.5406,3.5404,3.5403,3.5402,3.6798,3.6769,3.6684,3.6568,3.6496,3.6292,3.6239,3.608,3.5929,3.5945,3.5891,3.5887,3.5863,3.5931,3.5932,3.5932,3.5933,3.5933,3.5934,3.7086,3.6983,3.696,3.6817,3.6751,3.6644,3.6431,3.636,3.624,3.6128,3.6126,3.5975,3.5742,3.5687,3.5945,3.5943,3.5941,3.594,3.594,3.7369,3.728,3.7246,3.7181,3.6997,3.6935,3.6734,3.6603,3.652,3.6497,3.6342,3.6196,3.6118,3.6092,3.6045,3.6379,3.6379,3.6379,3.6379,3.7576,3.7522,3.745,3.7357,3.7246,3.7062,3.7021,3.6855,3.6668,3.6605,3.6533,3.6457,3.6438,3.637,3.6338,3.6292,3.6682,3.6682,3.6682,3.7739,3.7668,3.7668,3.749,3.7334,3.7202,3.7158,3.7053,3.6821,3.6691,3.6552,3.6539,3.6415,3.6383,3.6251,3.6205,3.6116,0,0]}]]